Regional Weather Roundup
Issued by NWS

Home | Current Version | Previous Version | Text Only | Print | Product List | Glossary Off
Versions: 1 2 3 4 5 6 7 8 9 10 11 12 13 14 15 16 17 18 19 20 21 22 23 24 25 26 27 28 29 30 31 32 33 34 35 36 37 38 39 40 41 42 43 44 45 46 47 48 49 50

000
ASUS43 KLOT 031212
RWRIL

ILLINOIS REGIONAL WEATHER ROUNDUP
NATIONAL WEATHER SERVICE CHICAGO/ROMEOVILLE IL
700 AM CDT SUN MAY 03 2015

NOTE: "FAIR" INDICATES FEW OR NO CLOUDS BELOW 12,000 FEET WITH NO
SIGNIFICANT WEATHER AND/OR OBSTRUCTIONS TO VISIBILITY.

* THESE STATIONS ARE NOT UNDER NWS QUALITY CONTROL. THEY ALSO MAY NOT
  REPORT WEATHER SUCH AS PRECIPITATION OR FOG.

ILZ001-002-007-009-015-016-024-031300-
NORTHWEST ILLINOIS

CITY           SKY/WX    TMP DP  RH WIND       PRES   REMARKS
MOLINE         CLOUDY    60  54  80 S8        29.91S
6HR MIN TEMP:  57; 6HR MAX TEMP:  63; 6HR PCP:  0.20;

STERLING*      PTSUNNY   61  45  55 S5        29.94S
SAVANNA*       CLOUDY    59  46  62 SE8       29.91S
$$

ILZ003-004-008-010-011-017-018-031300-
NORTH CENTRAL ILLINOIS

CITY           SKY/WX    TMP DP  RH WIND       PRES   REMARKS
ROCKFORD       CLOUDY    59  44  57 SE6       29.96R
6HR MIN TEMP:  57; 6HR MAX TEMP:  61;

FREEPORT*      CLOUDY    59  44  57 S7        29.95R
ROCHELLE*      PTSUNNY   58  44  60 S10       29.95S
DE KALB*       PTSUNNY   56  44  65 S10       29.97S
PERU*          PTSUNNY   61  46  57 S9        29.97S
$$

ILZ005-006-012>014-019>023-031300-
NORTHEAST ILLINOIS

CITY           SKY/WX    TMP DP  RH WIND       PRES   REMARKS
CHICAGO-OHARE  PTSUNNY   57  45  64 S3        29.97S
6HR MIN TEMP:  55; 6HR MAX TEMP:  62; 6HR PCP: TRACE;

CHICAGO-MIDWAY PTSUNNY   61  45  55 S8        29.99S
6HR MIN TEMP:  60; 6HR MAX TEMP:  63; 6HR PCP: TRACE;

AURORA         PTSUNNY   58  46  64 SE7       29.98R
6HR MIN TEMP:  51; 6HR MAX TEMP:  58;

LANSING*       CLOUDY    58  44  60 S3        30.01S
JOLIET*        PTSUNNY   60  48  65 SE5       29.99R
WAUKEGAN       PTSUNNY   57  44  62 S8        29.97R
6HR MIN TEMP:  54; 6HR MAX TEMP:  58;

DUPAGE AIRPORT MOSUNNY   56  46  69 S6        29.97R
6HR MIN TEMP:  51; 6HR MAX TEMP:  56;

KANKAKEE*      MOSUNNY   59  46  63 S7        30.02R
WHEELING       PTSUNNY   55  45  68 S5        29.99S
6HR MIN TEMP:  53; 6HR MAX TEMP:  60; 6HR PCP: TRACE;

MORRIS*        CLOUDY    59  45  61 S8        29.96R
ROMEOVILLE*    MOSUNNY   56  45  66 S8        29.99S
NORTHERLY ISL    N/A     61  44  53 S7          N/A
$$

LMZ740>746-031300-
SOUTHERN LAKE MICHIGAN

STATION/POSITION SKY/WX   TEMP    WIND        PRES    VSBY  WAVE
                          AIR SEA DIR/SP/G                  HT/PER
                          (F)     (DEG/KT/KT) (MB)    (MI)  (FT/S)
HARRISON CRIB              61     190/ 15/ 17   N/A
BURNHAM HARBOR             61     190/  9/ 10   N/A
CALUMET HARBOR             61     200/  8/ 11   N/A
BURNS HARBOR               61     190/ 12/ 16 1016.6R
MICHIGAN CITY              60     160/ 11/ 16   N/A
MICHIGAN CITY 6N           56 50  200/  8/ 10   N/A           1
ST. JOSEPH                 54 48  220/  8/  8   N/A           1
$$

ILZ025>027-034>036-040-047-049-050-058-095>099-031300-
WEST-CENTRAL ILLINOIS

CITY           SKY/WX    TMP DP  RH WIND       PRES   REMARKS
QUINCY         PTCLDY    59  46  62 S8        29.96R
GALESBURG*     CLOUDY    58  50  75 E5        29.95S
MACOMB*        CLOUDY    58  48  67 S8        29.97R
JACKSONVILLE*  PTSUNNY   64  46  53 S7        29.98R
PITTSFIELD*    FAIR      59  47  64 S6        29.99R
$$

ILZ028>032-037-038-041>044-048-051>054-059>061-031300-
CENTRAL ILLINOIS

CITY           SKY/WX    TMP DP  RH WIND       PRES   REMARKS
PONTIAC        LGT RAIN  61  48  62 S9        30.00R
BLOOMINGTON    PTSUNNY   60  48  64 S10       30.02R
DECATUR        PTSUNNY   61  46  57 S9        30.02R
PEORIA         PTSUNNY   61  46  57 S8        29.98R
6HR MIN TEMP:  58; 6HR MAX TEMP:  64;

LACON*         CLOUDY    60  45  57 S6        29.96R
LINCOLN*       FAIR      60  47  62 S8        29.99R
SPRINGFIELD    MOSUNNY   61  46  57 S12       29.99R
6HR MIN TEMP:  59; 6HR MAX TEMP:  65;

TAYLORVILLE    MOSUNNY   59  46  63 S8        30.02R
$$

ILZ033-039-045-046-055>057-062-063-031300-
EAST-CENTRAL ILLINOIS

CITY           SKY/WX    TMP DP  RH WIND       PRES   REMARKS
CHAMPAIGN      MOSUNNY   62  45  53 S12       30.03R
DANVILLE*      CLOUDY    59  48  65 SE3       30.02R
RANTOUL*       MOSUNNY   62  48  61 S7        30.02S
MATTOON        MOSUNNY   60  47  61 S7        30.04R
PARIS*         MOSUNNY   57  49  75 SE6       30.06S
$$

ILZ079-100>102-031300-
SOUTHWEST ILLINOIS

CITY           SKY/WX    TMP DP  RH WIND       PRES   REMARKS
ALTON          PTSUNNY   55 N/A N/A S8        30.01R
BELLEVILLE     MOSUNNY   56  49  76 S1        30.01R
CAHOKIA*       MOSUNNY   58  47  66 S5        30.01R
SPARTA*        SUNNY     56  47  71 SE5       30.04R
$$

ILZ064>066-069>071-074>076-080>082-084>086-088>090-092>094-031300-
SOUTH-CENTRAL ILLINOIS

CITY           SKY/WX    TMP DP  RH WIND       PRES   REMARKS
CARBONDALE     SUNNY     55  49  80 CALM      30.05S
6HR MIN TEMP:  53; 6HR MAX TEMP:  56;

CAIRO*         SUNNY     52  51  95 CALM      30.07R
EFFINGHAM*     MOSUNNY   59  47  65 CALM      30.06S
MARION         MOSUNNY   59  48  67 SE6       30.07R
MT. VERNON     MOSUNNY   54  46  76 CALM      30.06R
CENTRALIA*     MOSUNNY   63  47  55 SE7       30.04R
SALEM*         MOSUNNY   62  50  66 SE3       30.05R
METROPOLIS*    MOSUNNY   54  54 100 CALM      30.08R
$$

ILZ067-068-072-073-078-083-087-091-031300-
SOUTHEAST ILLINOIS

CITY           SKY/WX    TMP DP  RH WIND       PRES   REMARKS
LAWRENCEVILLE  CLOUDY    59  52  77 CALM      30.08R
FLORA*         LGT RAIN  57  51  80 CALM      30.07R
FAIRFIELD*     PTSUNNY   59  50  71 SE3       30.06R
HARRISBURG*    PTSUNNY   56  54  92 CALM      30.08R
ROBINSON*      CLOUDY    58  49  73 S5        30.08S
CARMI*         CLOUDY    56  50  80 SE3       30.07S
$$

ABBREVIATIONS USED IN REMARKS
   TC - TEMPERATURE IN CELSIUS
  WCI - WIND CHILL INDEX
   HX - HEAT INDEX
  VSB - VISIBILITY
$$




USA.gov is the U.S. government's official web portal to all federal, state and local government web resources and services.